CFG6HX EDDL-LGRP

Flight info

Callsign CFG6HX
Flight time 3h 3m
Altitude 35000
Route DODEN7Z DODEN Y853 BOMBI DCT DETEV DCT DINKU DCT BESNI DCT LATLO DCT OBEDI DCT KLAGY DCT MAGAM DCT AGLIB/N0443F370 DCT DOBOT DCT VABEK UL603 OLOTA DCT DISOR DCT MES UN139 LURUS UL995 CODIC
Aircraft A321/M-SDE3FGHIRWY/LB1

Departure

Time 2026-05-06 13:02
Airport Düsseldorf Airport (EDDL)

Arrival

Time 2026-05-06 16:06
Airport Rhodes International Airport "Diagoras" (LGRP)
Time Latitude Longitude Altitude Speed Heading
2026-05-06 13:02 51.33536 6.86951 2521 ft 230 kts 52°
2026-05-06 13:02 51.33541 6.86961 2523 ft 230 kts 52°
2026-05-06 13:03 51.34956 6.91209 3473 ft 257 kts 74°
2026-05-06 13:03 51.35136 6.94079 4225 ft 265 kts 93°
2026-05-06 13:03 51.34546 7.00172 5819 ft 274 kts 100°
2026-05-06 13:04 51.34228 7.03277 6628 ft 277 kts 99°
2026-05-06 13:04 51.33924 7.06274 7384 ft 281 kts 100°
2026-05-06 13:04 51.33591 7.09592 8211 ft 286 kts 100°
2026-05-06 13:04 51.33280 7.12666 8876 ft 294 kts 101°
2026-05-06 13:05 51.32822 7.15835 9750 ft 294 kts 112°
2026-05-06 13:05 51.32278 7.17780 10198 ft 294 kts 122°
2026-05-06 13:05 51.30595 7.21195 11110 ft 296 kts 139°
2026-05-06 13:05 51.28951 7.23776 11304 ft 321 kts 139°
2026-05-06 13:06 51.27405 7.26194 11426 ft 341 kts 138°
2026-05-06 13:06 51.25685 7.28893 11863 ft 351 kts 138°
2026-05-06 13:06 51.23955 7.31620 12481 ft 355 kts 138°
2026-05-06 13:06 51.22210 7.34377 13118 ft 359 kts 138°
2026-05-06 13:07 51.20421 7.37202 13747 ft 363 kts 138°
2026-05-06 13:07 51.18617 7.40041 14319 ft 367 kts 138°
2026-05-06 13:07 51.16792 7.42910 14895 ft 370 kts 138°
2026-05-06 13:07 51.14974 7.45758 15468 ft 374 kts 138°
2026-05-06 13:08 51.13104 7.48649 16035 ft 377 kts 139°
2026-05-06 13:08 51.11253 7.51480 16595 ft 380 kts 139°
2026-05-06 13:08 51.09330 7.54401 17162 ft 384 kts 139°
2026-05-06 13:08 51.07392 7.57340 17735 ft 387 kts 139°
2026-05-06 13:09 51.05380 7.60399 18257 ft 390 kts 139°
2026-05-06 13:09 51.03451 7.63342 18753 ft 392 kts 139°
2026-05-06 13:09 51.01506 7.66402 19232 ft 395 kts 137°
2026-05-06 13:09 50.99577 7.69530 19725 ft 397 kts 137°
2026-05-06 13:10 50.97656 7.72696 20217 ft 400 kts 136°
2026-05-06 13:10 50.95727 7.75890 20694 ft 402 kts 136°
2026-05-06 13:10 50.94415 7.78059 21027 ft 404 kts 136°
2026-05-06 13:10 50.91828 7.82313 21662 ft 407 kts 136°
2026-05-06 13:11 50.89849 7.85540 22131 ft 409 kts 136°
2026-05-06 13:11 50.87853 7.88775 22595 ft 411 kts 136°
2026-05-06 13:11 50.85840 7.92022 23068 ft 414 kts 136°
2026-05-06 13:11 50.83821 7.95277 23481 ft 416 kts 136°
2026-05-06 13:12 50.82448 7.97491 23741 ft 418 kts 136°
2026-05-06 13:12 50.80435 8.00739 24094 ft 420 kts 137°
2026-05-06 13:12 50.78388 8.04042 24396 ft 425 kts 138°
2026-05-06 13:12 50.76264 8.07463 24777 ft 427 kts 137°
2026-05-06 13:13 50.74217 8.10759 25151 ft 429 kts 137°
2026-05-06 13:13 50.72117 8.14136 25526 ft 431 kts 137°
2026-05-06 13:13 50.69989 8.17550 25899 ft 433 kts 137°
2026-05-06 13:13 50.67909 8.20885 26250 ft 435 kts 137°
2026-05-06 13:14 50.65763 8.24323 26612 ft 437 kts 137°
2026-05-06 13:14 50.63642 8.27712 26959 ft 439 kts 137°
2026-05-06 13:14 50.61470 8.31175 27304 ft 441 kts 137°
2026-05-06 13:14 50.59309 8.34616 27653 ft 443 kts 137°
2026-05-06 13:15 50.57141 8.38069 27973 ft 444 kts 138°
2026-05-06 13:15 50.54920 8.41599 28274 ft 446 kts 139°
2026-05-06 13:15 50.52772 8.45006 28592 ft 448 kts 139°
2026-05-06 13:15 50.50560 8.48503 28916 ft 450 kts 139°
2026-05-06 13:16 50.48360 8.51980 29254 ft 451 kts 139°
2026-05-06 13:16 50.46147 8.55477 29557 ft 453 kts 139°
2026-05-06 13:16 50.43924 8.58992 29888 ft 454 kts 139°
2026-05-06 13:16 50.41699 8.62504 30265 ft 452 kts 139°
2026-05-06 13:17 50.39486 8.65992 30637 ft 452 kts 139°
2026-05-06 13:17 50.37263 8.69488 30996 ft 451 kts 139°
2026-05-06 13:17 50.35044 8.72968 31362 ft 450 kts 139°
2026-05-06 13:17 50.32853 8.76394 31710 ft 449 kts 139°
2026-05-06 13:18 50.30637 8.79850 32075 ft 447 kts 139°
2026-05-06 13:18 50.28440 8.83280 32554 ft 444 kts 139°
2026-05-06 13:18 50.26260 8.86683 32960 ft 442 kts 139°
2026-05-06 13:18 50.24059 8.90115 33327 ft 441 kts 139°
2026-05-06 13:19 50.21889 8.93496 33684 ft 440 kts 139°
2026-05-06 13:19 50.19712 8.96881 33973 ft 440 kts 139°
2026-05-06 13:19 50.17547 9.00236 34226 ft 440 kts 139°
2026-05-06 13:19 50.15376 9.03597 34514 ft 440 kts 139°
2026-05-06 13:20 50.13197 9.06967 34712 ft 441 kts 139°
2026-05-06 13:20 50.08832 9.13708 34763 ft 437 kts 139°
2026-05-06 13:21 50.04515 9.20345 34765 ft 436 kts 140°
2026-05-06 13:21 50.00188 9.26997 34770 ft 437 kts 140°
2026-05-06 13:22 49.95855 9.33644 34768 ft 437 kts 140°
2026-05-06 13:22 49.91521 9.40264 34773 ft 437 kts 140°
2026-05-06 13:23 49.87150 9.46917 34777 ft 437 kts 140°
2026-05-06 13:23 49.82801 9.53511 34783 ft 437 kts 140°
2026-05-06 13:24 49.78410 9.60038 34757 ft 437 kts 142°
2026-05-06 13:24 49.73966 9.66438 34764 ft 437 kts 142°
2026-05-06 13:25 49.69501 9.72841 34777 ft 438 kts 142°
2026-05-06 13:25 49.65051 9.79256 34784 ft 438 kts 142°
2026-05-06 13:26 49.60568 9.85728 34796 ft 438 kts 142°
2026-05-06 13:26 49.56084 9.92185 34780 ft 438 kts 142°
2026-05-06 13:27 49.51623 9.98574 34790 ft 438 kts 143°
2026-05-06 13:27 49.47162 10.04933 34805 ft 437 kts 143°
2026-05-06 13:28 49.42705 10.11287 34808 ft 437 kts 143°
2026-05-06 13:28 49.38250 10.17628 34812 ft 436 kts 143°
2026-05-06 13:29 49.33788 10.23947 34819 ft 436 kts 143°
2026-05-06 13:29 49.29282 10.30293 34808 ft 436 kts 143°
2026-05-06 13:30 49.24821 10.36577 34797 ft 436 kts 143°
2026-05-06 13:30 49.20365 10.42983 34821 ft 437 kts 142°
2026-05-06 13:31 49.16022 10.49491 34835 ft 438 kts 141°
2026-05-06 13:31 49.11699 10.55995 34832 ft 437 kts 141°
2026-05-06 13:32 49.07330 10.62494 34833 ft 437 kts 142°
2026-05-06 13:32 49.02949 10.68947 34819 ft 437 kts 142°
2026-05-06 13:33 48.98573 10.75369 34828 ft 437 kts 142°
2026-05-06 13:33 48.94200 10.81787 34823 ft 437 kts 142°
2026-05-06 13:34 48.89818 10.88215 34800 ft 437 kts 142°
2026-05-06 13:34 48.85413 10.94653 34778 ft 436 kts 142°
2026-05-06 13:35 48.81035 11.01028 34747 ft 436 kts 143°
2026-05-06 13:35 48.76646 11.07403 34724 ft 437 kts 143°
2026-05-06 13:36 48.72987 11.12704 34731 ft 438 kts 143°
2026-05-06 13:36 48.68586 11.19071 34742 ft 438 kts 143°
2026-05-06 13:37 48.64180 11.25427 34763 ft 438 kts 143°
2026-05-06 13:37 48.59918 11.32178 34770 ft 442 kts 139°
2026-05-06 13:38 48.55828 11.39215 34756 ft 443 kts 138°
2026-05-06 13:38 48.51753 11.46183 34763 ft 442 kts 139°
2026-05-06 13:39 48.47665 11.52961 34755 ft 441 kts 140°
2026-05-06 13:39 48.43486 11.59794 34766 ft 440 kts 140°
2026-05-06 13:40 48.39361 11.66556 34777 ft 440 kts 140°
2026-05-06 13:40 48.35228 11.73340 34749 ft 439 kts 140°
2026-05-06 13:41 48.31099 11.80104 34757 ft 439 kts 140°
2026-05-06 13:41 48.26962 11.86845 34755 ft 439 kts 141°
2026-05-06 13:42 48.22797 11.93620 34761 ft 439 kts 140°
2026-05-06 13:42 48.18661 12.00352 34759 ft 439 kts 141°
2026-05-06 13:43 48.14521 12.07067 34729 ft 439 kts 141°
2026-05-06 13:43 48.10368 12.13780 34737 ft 439 kts 141°
2026-05-06 13:44 48.06213 12.20486 34738 ft 440 kts 141°
2026-05-06 13:44 48.02047 12.27189 34743 ft 440 kts 141°
2026-05-06 13:45 47.97872 12.33871 34737 ft 440 kts 142°
2026-05-06 13:45 47.91609 12.43879 34758 ft 439 kts 142°
2026-05-06 13:46 47.87447 12.50513 34756 ft 438 kts 142°
2026-05-06 13:46 47.83278 12.57140 34758 ft 438 kts 142°
2026-05-06 13:47 47.79072 12.63809 34751 ft 438 kts 142°
2026-05-06 13:47 47.74910 12.70400 34747 ft 437 kts 142°
2026-05-06 13:48 47.70711 12.77014 34700 ft 437 kts 142°
2026-05-06 13:48 47.66531 12.83518 34706 ft 436 kts 143°
2026-05-06 13:49 47.62246 12.89875 34723 ft 436 kts 144°
2026-05-06 13:49 47.57896 12.96214 34734 ft 437 kts 144°
2026-05-06 13:50 47.53579 13.02544 34749 ft 437 kts 143°
2026-05-06 13:50 47.49261 13.08885 34714 ft 437 kts 144°
2026-05-06 13:51 47.44947 13.15221 34753 ft 438 kts 143°
2026-05-06 13:51 47.40616 13.21562 34756 ft 438 kts 144°
2026-05-06 13:52 47.36334 13.27807 34800 ft 438 kts 144°
2026-05-06 13:52 47.32028 13.34333 34795 ft 445 kts 137°
2026-05-06 13:53 47.28140 13.41450 34805 ft 447 kts 137°
2026-05-06 13:53 47.24214 13.48584 34832 ft 448 kts 137°
2026-05-06 13:54 47.20281 13.55694 34819 ft 448 kts 137°
2026-05-06 13:54 47.16350 13.62804 34821 ft 449 kts 136°
2026-05-06 13:55 47.12399 13.69923 34849 ft 450 kts 136°
2026-05-06 13:55 47.08427 13.77055 34838 ft 451 kts 136°
2026-05-06 13:56 47.04448 13.84187 34861 ft 452 kts 136°
2026-05-06 13:56 47.00458 13.91320 34864 ft 452 kts 136°
2026-05-06 13:57 46.96467 13.98436 34871 ft 452 kts 136°
2026-05-06 13:57 46.92477 14.05548 34831 ft 452 kts 135°
2026-05-06 13:58 46.88454 14.12692 34861 ft 452 kts 136°
2026-05-06 13:58 46.84469 14.19750 34883 ft 452 kts 136°
2026-05-06 13:59 46.80447 14.26853 34882 ft 451 kts 136°
2026-05-06 13:59 46.76434 14.33912 34895 ft 451 kts 136°
2026-05-06 14:00 46.72423 14.40951 34882 ft 451 kts 136°
2026-05-06 14:00 46.68411 14.47971 34899 ft 451 kts 136°
2026-05-06 14:01 46.64405 14.54980 34903 ft 449 kts 135°
2026-05-06 14:01 46.60406 14.61947 34920 ft 448 kts 136°
2026-05-06 14:02 46.57030 14.67805 34924 ft 447 kts 136°
2026-05-06 14:02 46.53033 14.74736 34917 ft 447 kts 136°
2026-05-06 14:03 46.49030 14.81666 34929 ft 446 kts 136°
2026-05-06 14:03 46.45010 14.88651 34928 ft 447 kts 136°
2026-05-06 14:04 46.41035 14.95571 34932 ft 447 kts 136°
2026-05-06 14:04 46.37041 15.02477 34912 ft 447 kts 136°
2026-05-06 14:05 46.33030 15.09382 34916 ft 447 kts 136°
2026-05-06 14:05 46.29005 15.16302 34932 ft 447 kts 136°
2026-05-06 14:06 46.24996 15.23180 34941 ft 447 kts 136°
2026-05-06 14:06 46.20995 15.30035 34945 ft 447 kts 136°
2026-05-06 14:07 46.16970 15.36904 34914 ft 448 kts 136°
2026-05-06 14:07 46.12937 15.43756 34912 ft 449 kts 136°
2026-05-06 14:08 46.08872 15.50663 34925 ft 448 kts 136°
2026-05-06 14:08 46.04835 15.57505 34934 ft 448 kts 136°
2026-05-06 14:09 46.00792 15.64330 34934 ft 448 kts 136°
2026-05-06 14:09 45.96749 15.71152 34937 ft 448 kts 136°
2026-05-06 14:10 45.92784 15.78080 34940 ft 449 kts 134°
2026-05-06 14:10 45.88884 15.85090 34939 ft 449 kts 134°
2026-05-06 14:11 45.84972 15.92064 34942 ft 448 kts 135°
2026-05-06 14:11 45.81005 15.99045 34910 ft 448 kts 135°
2026-05-06 14:12 45.77053 16.05963 34915 ft 449 kts 135°
2026-05-06 14:12 45.73103 16.12875 34919 ft 449 kts 135°
2026-05-06 14:13 45.69140 16.19806 34953 ft 449 kts 135°
2026-05-06 14:13 45.65180 16.26702 34914 ft 449 kts 135°
2026-05-06 14:14 45.61208 16.33593 34924 ft 449 kts 135°
2026-05-06 14:14 45.57234 16.40491 34930 ft 450 kts 135°
2026-05-06 14:15 45.53231 16.47428 34934 ft 450 kts 135°
2026-05-06 14:15 45.49238 16.54307 34937 ft 450 kts 135°
2026-05-06 14:16 45.45246 16.61173 34918 ft 451 kts 135°
2026-05-06 14:16 45.41239 16.68053 34917 ft 451 kts 135°
2026-05-06 14:17 45.37224 16.74923 34921 ft 452 kts 135°
2026-05-06 14:17 45.33205 16.81794 34921 ft 452 kts 135°
2026-05-06 14:18 45.29181 16.88665 34897 ft 452 kts 135°
2026-05-06 14:18 45.25149 16.95540 34901 ft 453 kts 135°
2026-05-06 14:19 45.21103 17.02397 34906 ft 453 kts 135°
2026-05-06 14:19 45.17048 17.09253 34910 ft 454 kts 135°
2026-05-06 14:20 45.13045 17.16178 34900 ft 457 kts 129°
2026-05-06 14:20 45.09484 17.23648 34910 ft 458 kts 128°
2026-05-06 14:21 45.05918 17.31124 34911 ft 458 kts 128°
2026-05-06 14:21 45.02347 17.38587 34897 ft 458 kts 128°
2026-05-06 14:22 44.98780 17.46032 34930 ft 457 kts 128°
2026-05-06 14:22 44.95208 17.53471 34917 ft 457 kts 128°
2026-05-06 14:23 44.91628 17.60892 34916 ft 457 kts 128°
2026-05-06 14:23 44.88038 17.68311 34925 ft 458 kts 128°
2026-05-06 14:24 44.84472 17.75673 34915 ft 458 kts 128°
2026-05-06 14:24 44.80857 17.83121 34907 ft 458 kts 128°
2026-05-06 14:25 44.77240 17.90442 34905 ft 456 kts 133°
2026-05-06 14:25 44.73089 17.97165 34892 ft 455 kts 135°
2026-05-06 14:26 44.68921 18.03849 34924 ft 454 kts 135°
2026-05-06 14:26 44.64760 18.10526 34914 ft 455 kts 135°
2026-05-06 14:27 44.60583 18.17202 34913 ft 455 kts 135°
2026-05-06 14:27 44.56395 18.23870 34918 ft 455 kts 135°
2026-05-06 14:28 44.52206 18.30536 34925 ft 455 kts 135°
2026-05-06 14:28 44.48013 18.37193 34910 ft 456 kts 135°
2026-05-06 14:29 44.43806 18.43846 34908 ft 457 kts 135°
2026-05-06 14:29 44.39591 18.50499 34916 ft 457 kts 135°
2026-05-06 14:30 44.36089 18.56025 34916 ft 457 kts 135°
2026-05-06 14:30 44.31844 18.62705 34923 ft 457 kts 135°
2026-05-06 14:31 44.27621 18.69328 34939 ft 457 kts 135°
2026-05-06 14:31 44.23393 18.75937 34942 ft 457 kts 135°
2026-05-06 14:32 44.19160 18.82538 34943 ft 456 kts 135°
2026-05-06 14:32 44.14934 18.89124 34943 ft 456 kts 135°
2026-05-06 14:33 44.10663 18.95762 34947 ft 456 kts 135°
2026-05-06 14:33 44.06440 19.02323 35005 ft 458 kts 135°
2026-05-06 14:34 44.04309 19.05628 35253 ft 459 kts 135°
2026-05-06 14:34 44.02135 19.08990 35547 ft 459 kts 135°
2026-05-06 14:34 44.00017 19.12260 35833 ft 459 kts 135°
2026-05-06 14:34 43.97872 19.15564 36161 ft 458 kts 135°
2026-05-06 14:35 43.95718 19.18874 36430 ft 458 kts 135°
2026-05-06 14:35 43.93587 19.22150 36646 ft 458 kts 135°
2026-05-06 14:35 43.91439 19.25449 36895 ft 459 kts 135°
2026-05-06 14:35 43.89311 19.28718 36954 ft 458 kts 135°
2026-05-06 14:36 43.85032 19.35279 36951 ft 457 kts 135°
2026-05-06 14:36 43.80754 19.41809 36950 ft 457 kts 135°
2026-05-06 14:37 43.76478 19.48334 36958 ft 458 kts 135°
2026-05-06 14:37 43.72163 19.54919 36953 ft 459 kts 135°
2026-05-06 14:38 43.67871 19.61438 36950 ft 459 kts 135°
2026-05-06 14:38 43.63567 19.67944 36967 ft 459 kts 135°
2026-05-06 14:39 43.59257 19.74453 36955 ft 460 kts 135°
2026-05-06 14:39 43.54935 19.80975 36967 ft 460 kts 135°
2026-05-06 14:40 43.50579 19.87517 36969 ft 460 kts 135°
2026-05-06 14:40 43.46251 19.94018 36974 ft 460 kts 135°
2026-05-06 14:41 43.41926 20.00514 36980 ft 461 kts 135°
2026-05-06 14:41 43.37585 20.07002 36975 ft 461 kts 135°
2026-05-06 14:42 43.33239 20.13479 36983 ft 461 kts 135°
2026-05-06 14:42 43.28889 20.19943 36987 ft 461 kts 135°
2026-05-06 14:43 43.24531 20.26421 36994 ft 461 kts 135°
2026-05-06 14:43 43.20171 20.32881 36994 ft 462 kts 135°
2026-05-06 14:44 43.15777 20.39358 36991 ft 462 kts 135°
2026-05-06 14:45 43.09208 20.49024 36983 ft 462 kts 135°
2026-05-06 14:45 43.04827 20.55454 36988 ft 462 kts 135°
2026-05-06 14:46 43.00352 20.62017 37003 ft 462 kts 135°
2026-05-06 14:46 42.95852 20.68181 37002 ft 461 kts 139°
2026-05-06 14:47 42.91139 20.74213 37014 ft 461 kts 140°
2026-05-06 14:47 42.86467 20.80184 37016 ft 461 kts 139°
2026-05-06 14:48 42.81806 20.86234 37027 ft 462 kts 139°
2026-05-06 14:48 42.77158 20.92291 37029 ft 463 kts 139°
2026-05-06 14:49 42.72500 20.98334 37032 ft 463 kts 139°
2026-05-06 14:49 42.67778 21.04446 37036 ft 463 kts 139°
2026-05-06 14:50 42.63106 21.10475 37041 ft 463 kts 139°
2026-05-06 14:50 42.59188 21.15506 37029 ft 463 kts 139°
2026-05-06 14:51 42.54410 21.21637 37021 ft 464 kts 139°
2026-05-06 14:51 42.49722 21.27651 37019 ft 465 kts 139°
2026-05-06 14:52 42.45016 21.33671 37016 ft 465 kts 139°
2026-05-06 14:52 42.40337 21.39643 37014 ft 465 kts 139°
2026-05-06 14:53 42.35593 21.45684 36994 ft 465 kts 139°
2026-05-06 14:53 42.30875 21.51673 36996 ft 465 kts 139°
2026-05-06 14:54 42.26155 21.57657 36990 ft 465 kts 139°
2026-05-06 14:54 42.21551 21.63470 37001 ft 465 kts 140°
2026-05-06 14:55 42.16723 21.69254 36990 ft 464 kts 141°
2026-05-06 14:55 42.11817 21.74942 36994 ft 464 kts 142°
2026-05-06 14:56 42.06933 21.80630 36982 ft 464 kts 141°
2026-05-06 14:56 42.02068 21.86361 36985 ft 465 kts 141°
2026-05-06 14:57 41.97208 21.92097 36983 ft 465 kts 141°
2026-05-06 14:57 41.92330 21.97825 36990 ft 465 kts 141°
2026-05-06 14:58 41.87453 22.03517 36992 ft 465 kts 141°
2026-05-06 14:58 41.82568 22.09211 36985 ft 465 kts 141°
2026-05-06 14:59 41.77648 22.14946 36990 ft 465 kts 141°
2026-05-06 14:59 41.72760 22.20633 36993 ft 466 kts 141°
2026-05-06 15:00 41.67838 22.26339 36976 ft 466 kts 141°
2026-05-06 15:00 41.62959 22.31975 37001 ft 466 kts 141°
2026-05-06 15:01 41.58042 22.37648 36998 ft 466 kts 141°
2026-05-06 15:01 41.53132 22.43315 37010 ft 467 kts 141°
2026-05-06 15:02 41.48215 22.48984 36999 ft 467 kts 141°
2026-05-06 15:02 41.43311 22.54614 37002 ft 468 kts 141°
2026-05-06 15:03 41.38353 22.60286 37007 ft 468 kts 141°
2026-05-06 15:03 41.33405 22.65930 36998 ft 468 kts 141°
2026-05-06 15:04 41.28425 22.71612 37009 ft 469 kts 141°
2026-05-06 15:04 41.23470 22.77251 37012 ft 469 kts 141°
2026-05-06 15:05 41.19317 22.81894 37015 ft 469 kts 141°
2026-05-06 15:05 41.13910 22.87862 37018 ft 469 kts 141°
2026-05-06 15:06 41.09031 22.93246 37016 ft 470 kts 141°
2026-05-06 15:06 41.03733 22.99099 37011 ft 470 kts 141°
2026-05-06 15:07 40.98930 23.04399 37015 ft 470 kts 141°
2026-05-06 15:07 40.93886 23.09954 37017 ft 469 kts 141°
2026-05-06 15:08 40.88781 23.15575 37010 ft 470 kts 141°
2026-05-06 15:08 40.83766 23.21081 37008 ft 471 kts 141°
2026-05-06 15:09 40.78688 23.26629 37000 ft 471 kts 141°
2026-05-06 15:09 40.73614 23.32165 37012 ft 471 kts 141°
2026-05-06 15:10 40.68518 23.37721 37023 ft 471 kts 141°
2026-05-06 15:10 40.63480 23.43208 37047 ft 471 kts 141°
2026-05-06 15:11 40.58423 23.48699 37023 ft 472 kts 141°
2026-05-06 15:11 40.53302 23.54251 37018 ft 473 kts 141°
2026-05-06 15:12 40.48231 23.59733 37027 ft 474 kts 141°
2026-05-06 15:12 40.43111 23.65249 37036 ft 474 kts 141°
2026-05-06 15:13 40.37945 23.70804 37039 ft 474 kts 142°
2026-05-06 15:13 40.32909 23.76209 37055 ft 474 kts 141°
2026-05-06 15:14 40.27757 23.81735 37045 ft 475 kts 141°
2026-05-06 15:14 40.22652 23.87214 37049 ft 475 kts 141°
2026-05-06 15:15 40.17359 23.92873 37051 ft 476 kts 142°
2026-05-06 15:15 40.12289 23.98264 37054 ft 476 kts 142°
2026-05-06 15:16 40.07130 24.03745 37061 ft 476 kts 142°
2026-05-06 15:16 40.02015 24.09186 37058 ft 476 kts 141°
2026-05-06 15:17 39.96897 24.14608 37061 ft 477 kts 142°
2026-05-06 15:17 39.91727 24.20076 37061 ft 477 kts 142°
2026-05-06 15:18 39.86571 24.25523 37065 ft 477 kts 142°
2026-05-06 15:18 39.81414 24.30952 37064 ft 477 kts 142°
2026-05-06 15:19 39.76239 24.36379 37062 ft 477 kts 142°
2026-05-06 15:19 39.71063 24.41804 37038 ft 478 kts 142°
2026-05-06 15:20 39.65894 24.47223 37059 ft 478 kts 142°
2026-05-06 15:20 39.60715 24.52637 37063 ft 479 kts 142°
2026-05-06 15:21 39.55486 24.58093 37064 ft 479 kts 142°
2026-05-06 15:21 39.50296 24.63495 37065 ft 479 kts 142°
2026-05-06 15:22 39.45088 24.68895 37059 ft 479 kts 142°
2026-05-06 15:22 39.40765 24.73381 37064 ft 479 kts 142°
2026-05-06 15:23 39.35574 24.78754 37068 ft 479 kts 142°
2026-05-06 15:23 39.30330 24.84159 37070 ft 479 kts 142°
2026-05-06 15:24 39.25158 24.89485 37076 ft 479 kts 142°
2026-05-06 15:24 39.19951 24.94851 37071 ft 479 kts 142°
2026-05-06 15:25 39.14729 25.00218 37074 ft 479 kts 142°
2026-05-06 15:25 39.09514 25.05563 37069 ft 479 kts 142°
2026-05-06 15:26 39.04291 25.10899 37065 ft 479 kts 142°
2026-05-06 15:26 38.99027 25.16270 37068 ft 480 kts 142°
2026-05-06 15:27 38.93784 25.21610 37060 ft 480 kts 142°
2026-05-06 15:27 38.88547 25.26935 37067 ft 480 kts 142°
2026-05-06 15:28 38.83303 25.32263 37079 ft 481 kts 142°
2026-05-06 15:28 38.78055 25.37582 37082 ft 481 kts 142°
2026-05-06 15:29 38.72794 25.42895 37077 ft 482 kts 143°
2026-05-06 15:29 38.67528 25.48205 37078 ft 482 kts 142°
2026-05-06 15:30 38.62258 25.53515 37068 ft 482 kts 143°
2026-05-06 15:30 38.56983 25.58815 37076 ft 483 kts 143°
2026-05-06 15:31 38.51689 25.64114 37089 ft 483 kts 143°
2026-05-06 15:31 38.46401 25.69407 37084 ft 483 kts 143°
2026-05-06 15:32 38.38436 25.77370 37071 ft 484 kts 143°
2026-05-06 15:32 38.33132 25.82665 37077 ft 484 kts 143°
2026-05-06 15:33 38.27806 25.87954 37080 ft 484 kts 144°
2026-05-06 15:33 38.21981 25.92045 37081 ft 479 kts 162°
2026-05-06 15:34 38.15668 25.94922 37084 ft 479 kts 163°
2026-05-06 15:34 38.09327 25.97801 37074 ft 479 kts 163°
2026-05-06 15:35 38.03096 26.00627 37076 ft 480 kts 163°
2026-05-06 15:35 37.96815 26.03485 37082 ft 481 kts 163°
2026-05-06 15:36 37.90515 26.06342 37081 ft 481 kts 163°
2026-05-06 15:36 37.84215 26.09186 37087 ft 481 kts 163°
2026-05-06 15:37 37.77906 26.12032 37092 ft 480 kts 163°
2026-05-06 15:37 37.71581 26.14888 37098 ft 480 kts 163°
2026-05-06 15:38 37.65292 26.17739 37100 ft 480 kts 163°
2026-05-06 15:38 37.58999 26.20572 37103 ft 480 kts 163°
2026-05-06 15:39 37.52708 26.23386 37099 ft 479 kts 163°
2026-05-06 15:39 37.46416 26.26202 37112 ft 480 kts 163°
2026-05-06 15:40 37.40125 26.29015 37087 ft 480 kts 163°
2026-05-06 15:40 37.33819 26.31811 37086 ft 481 kts 163°
2026-05-06 15:41 37.27505 26.34622 37087 ft 481 kts 163°
2026-05-06 15:41 37.21186 26.37443 37091 ft 482 kts 163°
2026-05-06 15:42 37.14873 26.40240 37080 ft 481 kts 163°
2026-05-06 15:42 37.08519 26.43056 37097 ft 481 kts 163°
2026-05-06 15:43 37.02199 26.45856 37086 ft 482 kts 163°
2026-05-06 15:43 36.99027 26.47256 36340 ft 488 kts 163°
2026-05-06 15:43 36.95819 26.48770 35294 ft 498 kts 157°
2026-05-06 15:44 36.92770 26.50896 34412 ft 505 kts 147°
2026-05-06 15:44 36.90013 26.53673 33514 ft 509 kts 136°
2026-05-06 15:44 36.87689 26.56985 32581 ft 511 kts 125°
2026-05-06 15:44 36.85893 26.60654 31814 ft 508 kts 114°
2026-05-06 15:45 36.84440 26.64796 31040 ft 507 kts 110°
2026-05-06 15:45 36.83060 26.68831 30402 ft 504 kts 110°
2026-05-06 15:45 36.81680 26.72835 29766 ft 501 kts 110°
2026-05-06 15:45 36.80323 26.76755 29142 ft 496 kts 111°
2026-05-06 15:46 36.78924 26.80790 28506 ft 491 kts 111°
2026-05-06 15:46 36.77574 26.84683 27898 ft 487 kts 111°
2026-05-06 15:46 36.76234 26.88544 27303 ft 482 kts 110°
2026-05-06 15:46 36.74909 26.92368 26698 ft 479 kts 110°
2026-05-06 15:47 36.73596 26.96166 26129 ft 475 kts 110°
2026-05-06 15:47 36.72292 26.99937 25559 ft 471 kts 110°
2026-05-06 15:47 36.70999 27.03666 25015 ft 466 kts 110°
2026-05-06 15:47 36.69702 27.07391 24475 ft 462 kts 110°
2026-05-06 15:48 36.68436 27.11023 23946 ft 458 kts 110°
2026-05-06 15:48 36.67156 27.14689 23372 ft 454 kts 111°
2026-05-06 15:48 36.65901 27.18275 22771 ft 450 kts 111°
2026-05-06 15:48 36.65075 27.20635 22351 ft 447 kts 111°
2026-05-06 15:49 36.63824 27.24205 21759 ft 442 kts 111°
2026-05-06 15:49 36.62599 27.27698 21215 ft 437 kts 111°
2026-05-06 15:49 36.61391 27.31144 20616 ft 434 kts 111°
2026-05-06 15:49 36.60189 27.34571 20129 ft 427 kts 111°
2026-05-06 15:50 36.58996 27.37971 19603 ft 423 kts 111°
2026-05-06 15:50 36.57824 27.41305 19120 ft 418 kts 111°
2026-05-06 15:50 36.56665 27.44593 18637 ft 413 kts 111°
2026-05-06 15:50 36.55499 27.47895 18125 ft 409 kts 111°
2026-05-06 15:51 36.54355 27.51124 17608 ft 405 kts 111°
2026-05-06 15:51 36.53223 27.54309 17152 ft 400 kts 111°
2026-05-06 15:51 36.52107 27.57447 16693 ft 395 kts 111°
2026-05-06 15:51 36.51001 27.60563 16226 ft 391 kts 111°
2026-05-06 15:52 36.49909 27.63636 15773 ft 387 kts 111°
2026-05-06 15:52 36.48800 27.66756 15308 ft 383 kts 111°
2026-05-06 15:52 36.47703 27.69841 14849 ft 380 kts 111°
2026-05-06 15:52 36.46722 27.72832 14407 ft 374 kts 104°
2026-05-06 15:53 36.46166 27.75958 13955 ft 368 kts 96°
2026-05-06 15:53 36.45757 27.79084 13484 ft 365 kts 96°
2026-05-06 15:53 36.45345 27.82178 13029 ft 361 kts 96°
2026-05-06 15:53 36.44931 27.85235 12586 ft 357 kts 96°
2026-05-06 15:54 36.44513 27.88298 12130 ft 353 kts 97°
2026-05-06 15:54 36.44105 27.91296 11676 ft 350 kts 97°
2026-05-06 15:54 36.43704 27.94267 11226 ft 347 kts 97°
2026-05-06 15:54 36.43307 27.97221 10766 ft 345 kts 96°
2026-05-06 15:55 36.42904 28.00218 10342 ft 342 kts 97°
2026-05-06 15:55 36.42555 28.02776 10228 ft 330 kts 97°
2026-05-06 15:55 36.42215 28.05243 10121 ft 319 kts 97°
2026-05-06 15:55 36.41739 28.08686 9943 ft 305 kts 96°
2026-05-06 15:56 36.41468 28.10658 9700 ft 301 kts 97°
2026-05-06 15:56 36.41423 28.10987 9616 ft 298 kts 94°
2026-05-06 15:56 36.41115 28.13647 8877 ft 310 kts 96°
2026-05-06 15:57 36.40871 28.15501 8779 ft 301 kts 96°
2026-05-06 15:57 36.40526 28.17954 8565 ft 293 kts 97°
2026-05-06 15:57 36.40163 28.20474 8169 ft 291 kts 97°
2026-05-06 15:57 36.39813 28.22900 7512 ft 284 kts 97°
2026-05-06 15:58 36.39462 28.25355 7035 ft 278 kts 97°
2026-05-06 15:58 36.39130 28.27711 6613 ft 276 kts 96°
2026-05-06 15:58 36.38801 28.30066 6178 ft 274 kts 96°
2026-05-06 15:58 36.38489 28.32325 5713 ft 258 kts 94°
2026-05-06 15:59 36.38530 28.34457 5264 ft 239 kts 73°
2026-05-06 15:59 36.39158 28.36314 4852 ft 233 kts 52°
2026-05-06 15:59 36.40237 28.37735 4657 ft 223 kts 33°
2026-05-06 15:59 36.41589 28.38609 4376 ft 218 kts 15°
2026-05-06 16:00 36.43077 28.38867 4090 ft 215 kts 355°
2026-05-06 16:00 36.44507 28.38501 4092 ft 211 kts 338°
2026-05-06 16:00 36.45774 28.37592 4091 ft 213 kts 321°
2026-05-06 16:00 36.46759 28.36209 4020 ft 217 kts 304°
2026-05-06 16:01 36.47332 28.34491 3896 ft 213 kts 287°
2026-05-06 16:01 36.47417 28.32666 3667 ft 212 kts 268°
2026-05-06 16:01 36.47030 28.30898 3416 ft 213 kts 255°
2026-05-06 16:01 36.46529 28.29182 3151 ft 209 kts 256°
2026-05-06 16:02 36.46048 28.27530 2886 ft 198 kts 254°
2026-05-06 16:02 36.45591 28.25959 2612 ft 188 kts 256°
2026-05-06 16:02 36.45160 28.24477 2371 ft 178 kts 254°
2026-05-06 16:02 36.44762 28.23114 2157 ft 157 kts 255°
2026-05-06 16:03 36.44411 28.21910 1956 ft 143 kts 256°
2026-05-06 16:03 36.44085 28.20786 1776 ft 136 kts 256°
2026-05-06 16:03 36.43768 28.19696 1600 ft 132 kts 255°
2026-05-06 16:03 36.43452 28.18608 1419 ft 135 kts 255°
2026-05-06 16:04 36.43132 28.17513 1238 ft 135 kts 255°
2026-05-06 16:04 36.42809 28.16423 1046 ft 134 kts 253°
2026-05-06 16:04 36.42501 28.15355 890 ft 130 kts 253°
2026-05-06 16:04 36.42192 28.14306 739 ft 128 kts 253°
2026-05-06 16:05 36.41889 28.13267 590 ft 128 kts 253°
2026-05-06 16:05 36.41602 28.12223 407 ft 129 kts 245°
2026-05-06 16:05 36.41301 28.11207 243 ft 122 kts 247°
2026-05-06 16:05 36.41007 28.10216 51 ft 121 kts 248°
2026-05-06 16:06 36.40744 28.09328 31 ft 89 kts 250°
2026-05-06 16:06 36.40575 28.08741 29 ft 63 kts 249°
2026-05-06 16:06 36.40447 28.08316 28 ft 42 kts 249°
2026-05-06 16:06 36.40346 28.08033 29 ft 27 kts 231°
2026-05-06 16:07 36.40259 28.07933 28 ft 15 kts 220°
2026-05-06 16:07 36.40176 28.07872 28 ft 13 kts 175°
2026-05-06 16:07 36.40160 28.07954 28 ft 12 kts 70°
2026-05-06 16:07 36.40195 28.08069 28 ft 17 kts 71°
2026-05-06 16:08 36.40240 28.08227 28 ft 20 kts 70°
2026-05-06 16:08 36.40286 28.08382 28 ft 19 kts 70°
2026-05-06 16:08 36.40330 28.08528 28 ft 17 kts 70°
2026-05-06 16:08 36.40371 28.08665 28 ft 16 kts 70°
2026-05-06 16:09 36.40401 28.08798 28 ft 15 kts 84°
2026-05-06 16:09 36.40398 28.08923 28 ft 14 kts 92°
2026-05-06 16:09 36.40410 28.09039 28 ft 13 kts 73°
2026-05-06 16:09 36.40439 28.09141 28 ft 12 kts 70°
2026-05-06 16:10 36.40467 28.09235 28 ft 11 kts 69°
2026-05-06 16:10 36.40494 28.09318 28 ft 8 kts 63°
2026-05-06 16:10 36.40478 28.09364 28 ft 6 kts 156°
2026-05-06 16:10 36.40443 28.09381 28 ft 2 kts 160°
2026-05-06 16:11 36.40438 28.09383 28 ft 0 kts 160°